Weather History for KLNS - March, 2014

Change the Weather History Date:

Friday, March 21, 2014

  Actual Average Record
Temperature  
Mean Temperature 41 °F -  
Max Temperature 53 °F 50 °F 67 °F (1978)
Min Temperature 30 °F 32 °F 11 °F (1986)
Degree Days  
Heating Degree Days 24    
Moisture  
Dew Point 22 °F    
Average Humidity 50    
Maximum Humidity 75    
Minimum Humidity 23    
Precipitation  
Precipitation 0.00 in - - ()
Sea Level Pressure  
Sea Level Pressure 30.02 in    
Wind  
Wind Speed 8 mph (West)    
Max Wind Speed 16 mph    
Max Gust Speed 24 mph    
Visibility 10 miles    
Events      
Averages and records for this station are not official NWS values.
T = Trace of Precipitation, MM = Missing Value Source: NWS Daily Summary

Daily Weather History Graph

Daily Weather History Graph

Search for Another Location

Airport or City:

Trip Planner

Search our weather history database for the weather conditions in past years. The results will help you decide how hot, cold, wet, or windy it might be!

Date:

Astronomy

Mar. 21, 2014 Rise Set
Actual Time 7:06 AM EDT 7:18 PM EDT
Civil Twilight 6:39 AM EDT 7:45 PM EDT
Nautical Twilight 6:08 AM EDT 8:17 PM EDT
Astronomical Twilight 5:36 AM EDT 8:49 PM EDT
Moon No Moon Rise 9:56 AM EDT (3/21)
Length of Visible Light 13h 05m
Length of Day
12h 11m
Waning Gibbous, 75% of the Moon is Illuminated
Mar 21
Waning Gibbous
Mar 23
Last Quarter
Mar 30
New
Apr 7
First Quarter
Apr 15
Full

Hourly Weather History & Observations

Time (EDT) Temp. Windchill Dew Point Humidity Pressure Visibility Wind Dir Wind Speed Gust Speed Precip Events Conditions
12:53 AM 35.1 °F 29.3 °F 23.0 °F 61% 29.97 in 10.0 mi West 6.9 mph - N/A   Clear
1:53 AM 33.1 °F 26.1 °F 23.0 °F 66% 29.98 in 10.0 mi West 8.1 mph - N/A   Clear
2:53 AM 33.1 °F 28.7 °F 23.0 °F 66% 29.99 in 10.0 mi NW 4.6 mph - N/A   Scattered Clouds
3:53 AM 35.1 °F 29.3 °F 23.0 °F 61% 29.99 in 10.0 mi WNW 6.9 mph - N/A   Partly Cloudy
4:53 AM 34.0 °F 29.8 °F 23.0 °F 64% 30.00 in 10.0 mi WSW 4.6 mph - N/A   Clear
5:53 AM 30.9 °F 27.5 °F 23.0 °F 72% 30.01 in 10.0 mi WSW 3.5 mph - N/A   Clear
6:53 AM 30.0 °F 26.5 °F 23.0 °F 75% 30.03 in 10.0 mi WSW 3.5 mph - N/A   Clear
7:53 AM 32.0 °F 27.5 °F 24.1 °F 73% 30.03 in 9.0 mi WSW 4.6 mph - N/A   Clear
8:53 AM 37.0 °F 29.8 °F 24.1 °F 59% 30.05 in 10.0 mi WNW 10.4 mph - N/A   Clear
9:53 AM 41.0 °F 33.5 °F 23.0 °F 49% 30.06 in 10.0 mi WNW 13.8 mph - N/A   Clear
10:53 AM 43.0 °F 36.0 °F 21.9 °F 43% 30.05 in 10.0 mi WNW 13.8 mph 24.2 mph N/A   Clear
11:53 AM 46.0 °F 39.3 °F 21.0 °F 37% 30.04 in 10.0 mi WNW 16.1 mph - N/A   Clear
12:53 PM 48.0 °F - 21.0 °F 34% 30.04 in 10.0 mi WNW 10.4 mph 20.7 mph N/A   Clear
1:53 PM 48.9 °F - 19.9 °F 32% 30.03 in 10.0 mi West 16.1 mph 21.9 mph N/A   Partly Cloudy
2:53 PM 48.9 °F - 19.0 °F 31% 30.03 in 10.0 mi West 13.8 mph - N/A   Mostly Cloudy
3:53 PM 52.0 °F - 15.1 °F 23% 30.01 in 10.0 mi West 13.8 mph 21.9 mph N/A   Clear
4:53 PM 52.0 °F - 15.1 °F 23% 30.00 in 10.0 mi WNW 15.0 mph 20.7 mph N/A   Clear
5:53 PM 51.1 °F - 15.1 °F 24% 30.01 in 10.0 mi WNW 13.8 mph - N/A   Clear
6:53 PM 48.9 °F - 23.0 °F 36% 30.03 in 10.0 mi WSW 6.9 mph - N/A   Clear
7:53 PM 46.9 °F - 24.1 °F 41% 30.04 in 10.0 mi Calm Calm - N/A   Clear
8:53 PM 41.0 °F - 25.0 °F 53% 30.04 in 10.0 mi Calm Calm - N/A   Clear
9:53 PM 39.9 °F - 25.0 °F 55% 30.03 in 7.0 mi Calm Calm - N/A   Clear
10:53 PM 37.9 °F 35.5 °F 26.1 °F 62% 30.03 in 10.0 mi East 3.5 mph - N/A   Clear
11:53 PM 34.0 °F 29.8 °F 25.0 °F 70% 30.02 in 10.0 mi East 4.6 mph - N/A   Clear